Location: L�tisburg
(47.3947°N, 9.0820°E)
Time: 11:11:45
(UTC+00:00)

Okean 1-7 - Pass Details

Date: 03 March 2021
Orbit: 590 x 619 km, 82.5° (Epoch: 11 April)

Event Time Altitude Azimuth Distance (km) Brightness Sun altitude
Rises 17:57:20 0° 360° (N) 2,898 6.5 -8.5°
Reaches altitude 10° 17:59:52 10° 12° (NNE) 1,984 5.5 -8.9°
Maximum altitude 18:03:38 27° 71° (ENE) 1,177 4.0 -9.6°
Drops below altitude 10° 18:07:20 10° 130° (SE) 1,955 5.2 -10.2°
Enters shadow 18:08:52 - 139° (SE) 2,500 5.8 -10.4°
